{"data":{"norad_id":44481,"intl_designator":"2019-051A","name":"AEHF-5 (USA 292)","alt_names":[],"object_type":"PAYLOAD","status":"ACTIVE","operator":null,"country":"US","launch_date":"2019-08-08","launch_site_code":"AFETR","launch_vehicle":null,"mission":null,"orbit_class":"UNKNOWN","rcs_meters":null,"size_class":null,"mass_kg":null,"dimensions":null,"purposes":["comms"],"wikipedia_slug":null,"has_3d_model":false,"image_url":null,"decayed_at":null,"tle_current":{"epoch":"2026-09-20T01:58:07.055040Z","epoch_age_seconds":61782,"freshness":"FRESH","line1":"1 44481U 19051A   26263.08202610 -.00000261  00000+0  00000+0 0  9993","line2":"2 44481   1.3903 344.0450 0029038  11.6279 125.9370  1.00271766 26215","mean_motion":1.00271766,"eccentricity":0.0029038,"inclination_deg":1.3903,"raan_deg":344.045,"arg_perigee_deg":11.6279,"mean_anomaly_deg":125.937,"bstar":0,"rev_number":2621,"period_min":1436.0971761483,"perigee_km":35664.162323446,"apogee_km":35909.038251717,"semimajor_km":42164.737287581,"source":"CELESTRAK","updated_at":"2026-09-20T09:00:35.269354Z"}}}